sat.trackr.live / text

‹ back to catalog

LIZZIESAT-3 (LS-3)

NORAD 63233 · 2025-052Z

PAYLOAD ACTIVE UNKNOWN

§ Identity

Operator
Country
US
Launch date
2025-03-15
Launch site
AFWTR
Launch vehicle
Mass (kg)
RCS (m²)

External: N2YO · Heavens-Above · Gunter

§ Orbital elements

Epoch: 2026-09-22T21:54:55.132704Z

Period
94.58 min
Inclination
97.3762°
Eccentricity
0.0006131
Mean motion
15.22517851 rev/d
Perigee alt
494.0 km
Apogee alt
502.5 km
Semi-major
6,876.4 km
B*
1.4959e-4
RAAN
156.0021°
Arg perigee
161.4312°
Mean anomaly
198.7149°
Rev number
8,467

§ Raw data

LIZZIESAT-3 (LS-3)1 63233U 25052Z   26265.91313811  .00003399  00000+0  14959-3 0  99932 63233  97.3762 156.0021 0006131 161.4312 198.7149 15.22517851 84678

JSON: /api/v1/satellites/63233 · /tle

For live sub-satellite position, see the globe view (requires WebGL).

§ Visibility from observer

Set your observer location to see the next 7 days of passes ≥ 10°. The values pass through the URL so the page stays shareable.

No JS? Fill the form by hand. The geolocation button needs JavaScript.

§ Radio — SatNOGS DB

ModeDescriptionDownlinkUplink
BPSK S-band telemetry 2.201 GHz

1 transmitter · refreshed weekly from db.satnogs.org